sat.trackr.live / text

‹ back to catalog

STARLINK-6074

NORAD 56553 · 2023-065BC

PAYLOAD ACTIVE UNKNOWN

§ Identity

Operator
Country
US
Launch date
2023-05-14
Launch site
AFETR
Launch vehicle
Mass (kg)
RCS (m²)

Purposes: comms

External: N2YO · Heavens-Above · Gunter

§ Orbital elements

Epoch: 2026-09-20T05:02:45.279456Z

Period
94.27 min
Inclination
43.0010°
Eccentricity
0.0000728
Mean motion
15.27576096 rev/d
Perigee alt
482.6 km
Apogee alt
483.6 km
Semi-major
6,861.2 km
B*
-4.8035e-6
RAAN
204.8486°
Arg perigee
257.0673°
Mean anomaly
103.0097°
Rev number
18,622

§ Raw data

STARLINK-60741 56553U 23065BC  26263.21024629 -.00000394  00000+0 -48035-5 0  99972 56553  43.0010 204.8486 0000728 257.0673 103.0097 15.27576096186220

JSON: /api/v1/satellites/56553 · /tle

For live sub-satellite position, see the globe view (requires WebGL).

§ Visibility from observer

Set your observer location to see the next 7 days of passes ≥ 10°. The values pass through the URL so the page stays shareable.

No JS? Fill the form by hand. The geolocation button needs JavaScript.